| time (UTC) | temp F | wind direction | speed knots | gust knots | rain 1hr in | rain 24hr in | rain mn in | humidity % | barometer mb |
| 20260505101534 | 43 | 310 | 0.0 | 0.0 | 0.00 | 0.02 | 0.02 | 90 | 1022.1 |
| 20260505100028 | 43 | 310 | 0.0 | 0.0 | 0.00 | 0.03 | 0.02 | 90 | 1021.8 |
| 20260505094527 | 44 | 310 | 0.0 | 0.0 | 0.00 | 0.03 | 0.02 | 90 | 1021.7 |
| 20260505093026 | 44 | 310 | 0.0 | 0.0 | 0.00 | 0.03 | 0.02 | 90 | 1021.7 |
| 20260505091527 | 45 | 310 | 0.0 | 0.0 | 0.00 | 0.03 | 0.02 | 89 | 1021.5 |
| 20260505090037 | 45 | 310 | 0.0 | 0.0 | 0.00 | 0.03 | 0.02 | 89 | 1021.2 |
| 20260505084521 | 46 | 310 | 0.0 | 0.0 | 0.01 | 0.03 | 0.02 | 88 | 1021.0 |
| 20260505083019 | 47 | 310 | 0.0 | 0.0 | 0.01 | 0.03 | 0.02 | 88 | 1020.7 |
| 20260505081517 | 47 | 310 | 0.0 | 0.0 | 0.01 | 0.03 | 0.02 | 86 | 1020.4 |
| 20260505080035 | 48 | 310 | 0.0 | 0.0 | 0.01 | 0.03 | 0.02 | 85 | 1020.2 |
| 20260505074513 | 50 | 310 | 0.0 | 0.0 | 0.00 | 0.02 | 0.01 | 83 | 1019.8 |
| 20260505073025 | 51 | 310 | 0.0 | 0.0 | 0.00 | 0.02 | 0.01 | 81 | 1019.6 |
| 20260505071509 | 53 | 310 | 0.0 | 0.0 | 0.00 | 0.02 | 0.01 | 78 | 1019.2 |
| 20260505070008 | 54 | 310 | 0.0 | 0.0 | 0.00 | 0.02 | 0.01 | 75 | 1019.0 |
| 20260505064508 | 56 | 310 | 0.0 | 0.0 | 0.00 | 0.02 | 0.01 | 71 | 1018.8 |
| 20260505063007 | 57 | 310 | 0.0 | 0.0 | 0.00 | 0.02 | 0.01 | 69 | 1018.5 |
| 20260505061506 | 59 | 78 | 0.0 | 1.7 | 0.00 | 0.02 | 0.01 | 64 | 1018.4 |
| 20260505060005 | 61 | 290 | 0.0 | 2.6 | 0.00 | 0.03 | 0.01 | 60 | 1018.3 |
| 20260505054505 | 63 | 266 | 0.0 | 2.6 | 0.00 | 0.03 | 0.01 | 57 | 1018.2 |
| 20260505053006 | 64 | 276 | 0.0 | 2.6 | 0.00 | 0.03 | 0.01 | 55 | 1018.1 |
| 20260505051506 | 64 | 279 | 0.0 | 2.6 | 0.00 | 0.03 | 0.01 | 53 | 1017.9 |
| 20260505041502 | 64 | 340 | 0.0 | 2.6 | 0.00 | 0.03 | 0.01 | 52 | 1017.4 |
| 20260505040106 | 64 | 275 | 0.0 | 5.2 | 0.00 | 0.03 | 0.01 | 54 | 1017.4 |
| 20260505034559 | 63 | 146 | 0.0 | 5.2 | 0.00 | 0.03 | 0.01 | 56 | 1017.3 |
| 20260505033059 | 63 | 262 | 0.0 | 3.5 | 0.00 | 0.03 | 0.01 | 54 | 1017.4 |
| 20260505031601 | 63 | 240 | 0.0 | 5.2 | 0.00 | 0.03 | 0.01 | 57 | 1017.4 |
| 20260505024556 | 63 | 272 | 1.7 | 5.2 | 0.00 | 0.04 | 0.01 | 53 | 1017.7 |
| 20260505023056 | 62 | 294 | 0.9 | 6.1 | 0.00 | 0.04 | 0.01 | 57 | 1017.9 |
| 20260505021555 | 62 | 325 | 0.0 | 5.2 | 0.00 | 0.04 | 0.01 | 56 | 1018.2 |
| 20260505020051 | 62 | 273 | 0.0 | 1.7 | 0.00 | 0.04 | 0.01 | 57 | 1018.3 |
| 20260505014602 | 61 | 150 | 0.9 | 3.5 | 0.00 | 0.04 | 0.01 | 58 | 1018.3 |
| 20260505013046 | 61 | 289 | 0.0 | 6.1 | 0.00 | 0.04 | 0.01 | 58 | 1018.5 |
| 20260505011549 | 61 | 293 | 0.9 | 2.6 | 0.00 | 0.04 | 0.01 | 59 | 1018.6 |
| 20260505010038 | 60 | 321 | 0.0 | 1.7 | 0.00 | 0.05 | 0.01 | 66 | 1018.9 |
| 20260505004535 | 58 | 238 | 0.0 | 3.5 | 0.00 | 0.05 | 0.01 | 69 | 1018.8 |
| 20260505003030 | 57 | 250 | 0.0 | 2.6 | 0.00 | 0.05 | 0.01 | 74 | 1018.9 |
| 20260505001526 | 55 | 254 | 0.0 | 2.6 | 0.00 | 0.05 | 0.01 | 77 | 1018.8 |
| 20260505000024 | 53 | 252 | 0.0 | 1.7 | 0.00 | 0.05 | 0.01 | 81 | 1018.9 |
| 20260504234518 | 52 | 252 | 0.0 | 0.9 | 0.00 | 0.05 | 0.01 | 85 | 1018.9 |
| 20260504233013 | 49 | 252 | 0.0 | 0.9 | 0.00 | 0.05 | 0.01 | 90 | 1019.1 |
| 20260504231510 | 47 | 248 | 0.0 | 3.5 | 0.00 | 0.05 | 0.01 | 91 | 1018.8 |
| 20260504230009 | 46 | 252 | 0.0 | 2.6 | 0.00 | 0.05 | 0.01 | 90 | 1018.7 |
| 20260504224507 | 46 | 251 | 0.0 | 0.9 | 0.00 | 0.05 | 0.01 | 91 | 1018.8 |
| 20260504223005 | 43 | 295 | 0.0 | 0.9 | 0.00 | 0.05 | 0.01 | 91 | 1018.5 |
| 20260504221504 | 40 | 303 | 0.0 | 0.0 | 0.00 | 0.05 | 0.01 | 91 | 1018.5 |
| 20260504220107 | 38 | 303 | 0.0 | 0.0 | 0.00 | 0.06 | 0.01 | 91 | 1018.2 |
| 20260504214605 | 38 | 303 | 0.0 | 0.0 | 0.00 | 0.06 | 0.01 | 91 | 1017.7 |
| 20260504213056 | 37 | 303 | 0.0 | 0.0 | 0.00 | 0.06 | 0.01 | 91 | 1017.4 |
| 20260504211552 | 37 | 303 | 0.0 | 0.0 | 0.00 | 0.06 | 0.01 | 91 | 1017.3 |
| 20260504210059 | 37 | 303 | 0.0 | 0.0 | 0.00 | 0.06 | 0.01 | 91 | 1016.8 |
| 20260504204603 | 38 | 303 | 0.0 | 0.0 | 0.00 | 0.06 | 0.01 | 92 | 1016.8 |
| 20260504203052 | 38 | 303 | 0.0 | 0.0 | 0.00 | 0.06 | 0.01 | 92 | 1016.4 |
| 20260504201540 | 39 | 303 | 0.0 | 0.0 | 0.00 | 0.06 | 0.01 | 91 | 1016.3 |
| 20260504200037 | 39 | 303 | 0.0 | 0.0 | 0.00 | 0.07 | 0.01 | 91 | 1016.0 |
| 20260504194533 | 40 | 303 | 0.0 | 0.0 | 0.00 | 0.07 | 0.01 | 91 | 1015.7 |
| 20260504193031 | 41 | 303 | 0.0 | 0.0 | 0.00 | 0.07 | 0.01 | 91 | 1015.5 |
| 20260504191528 | 42 | 303 | 0.0 | 0.0 | 0.00 | 0.07 | 0.01 | 91 | 1015.1 |
| 20260504190025 | 43 | 303 | 0.0 | 0.0 | 0.00 | 0.07 | 0.01 | 91 | 1015.0 |
| 20260504184524 | 44 | 303 | 0.0 | 0.0 | 0.00 | 0.07 | 0.01 | 91 | 1014.9 |
| 20260504183022 | 43 | 306 | 0.0 | 0.0 | 0.00 | 0.07 | 0.01 | 91 | 1014.9 |
| 20260504181520 | 42 | 333 | 0.9 | 6.1 | 0.00 | 0.07 | 0.01 | 91 | 1014.7 |
| 20260504180019 | 42 | 194 | 0.0 | 0.0 | 0.00 | 0.08 | 0.01 | 91 | 1014.4 |
| 20260504174516 | 42 | 194 | 0.0 | 0.0 | 0.00 | 0.08 | 0.01 | 91 | 1014.2 |
| 20260504173014 | 43 | 194 | 0.0 | 0.0 | 0.00 | 0.08 | 0.01 | 91 | 1014.1 |
| 20260504171513 | 43 | 194 | 0.0 | 0.0 | 0.00 | 0.08 | 0.01 | 91 | 1014.0 |